Regional Weather Roundup
Issued by NWS Northern Indiana

Home | Current Version | Previous Version | Graphics & Text | Print | Product List | Glossary On
Versions: 1 2 3 4 5 6 7 8 9 10 11 12 13 14 15 16 17 18 19 20 21 22 23 24 25 26 27 28 29 30 31 32 33 34 35 36 37 38 39 40 41 42 43 44 45 46 47 48 49 50
000
ASUS43 KIWX 152010
RWRIWX

KIWX WEATHER ROUNDUP
NATIONAL WEATHER SERVICE NORTHERN INDIANA
300 PM EST FRI DEC 15 2017

NOTE: "FAIR" INDICATES FEW OR NO CLOUDS BELOW 12,000 FEET WITH NO
SIGNIFICANT WEATHER AND/OR OBSTRUCTIONS TO VISIBILITY.

* THESE STATIONS ARE NOT UNDER NWS QUALITY CONTROL. THEY ALSO MAY NOT
  REPORT WEATHER SUCH AS PRECIPITATION OR FOG.

INZ001>027-152100-
NORTHERN INDIANA

CITY           SKY/WX    TMP DP  RH WIND       PRES   REMARKS
GARY*          CLOUDY    34  18  51 W18G32    29.92S WCI  23
VALPARAISO     CLOUDY    32  18  56 W17G26    29.91S WCI  21
MICHIGAN CITY* CLOUDY    32  18  55 W14G23    29.91S WCI  22
LAPORTE*       PTSUNNY   29  17  60 W9        29.91S WCI  21
KNOX*          SUNNY     32  18  55 NW14      29.92S WCI  22
SOUTH BEND     PTSUNNY   27  17  66 W18G24    29.89S WCI  14
ELKHART*       PTSUNNY   28  16  59 W17G29    29.88S WCI  16
GOSHEN         PTSUNNY   27  19  72 W16       29.89R WCI  15
MONTICELLO*    PTSUNNY   33  14  45 W18G25    29.94S WCI  22
LOGANSPORT*    MOSUNNY   32  16  51 W12G24    29.95R WCI  23
ROCHESTER*     SUNNY     32  18  55 W13G20    29.92S WCI  22
WARSAW*        MOSUNNY   28  18  64 W13       29.90S WCI  18
AUBURN*        CLOUDY    28  19  69 W16G25    29.89R WCI  17
FORT WAYNE     FLURRIES  28  19  69 W23       29.91R WCI  14
HUNTINGTON*    CLOUDY    30  15  54 W16G25    29.92S WCI  19
MARION*        CLOUDY    30  17  58 W25G35    29.94S WCI  16

$$
INZ028>050-152100-
CENTRAL INDIANA

CITY           SKY/WX    TMP DP  RH WIND       PRES   REMARKS
LAFAYETTE      MOSUNNY   34  16  47 W16G22    29.97S WCI  24
KOKOMO*        MOSUNNY   32  17  54 W23       29.94S WCI  19
MUNCIE*        CLOUDY    31  19  61 W16G25    29.94S WCI  20
INDIANAPOLIS   CLOUDY    31  20  63 W18       29.99S WCI  19

$$
MIZ043>046-050>051-056>058-064>065-071>073-077>080-152100-
SOUTHWEST LOWER MICHIGAN

CITY           SKY/WX    TMP DP  RH WIND       PRES   REMARKS
BATTLE CREEK   CLOUDY    26  16  65 W17G33    29.82S WCI  13
BENTON HARBOR  PTSUNNY   30  16  56 W20G28    29.88S WCI  17
COLDWATER*     FLURRIES  26  18  73 W13       29.84S WCI  15
HILLSDALE*     FLURRIES  27  18  69 W16G22    29.81R WCI  14
HOLLAND        CLOUDY    28  16  60 W16G22    29.84S WCI  16
GRAND RAPIDS   CLOUDY    26  18  71 W15G24    29.80S WCI  14
KALAMAZOO      CLOUDY    27  16  63 W13G21    29.84S WCI  16
STURGIS*       CLOUDY    28  18  65 W12G22    29.85S WCI  18
THREE RIVERS*  CLOUDY    28  17  64 W17G23    29.86S WCI  16

$$
OHZ001>008-015>018-024>025-152100-
NORTHWEST OHIO

CITY           SKY/WX    TMP DP  RH WIND       PRES   REMARKS
WAUSEON*       LGT SNOW  27  23  86 W16G24    29.86R WCI  14
DEFIANCE       LGT SNOW  26  19  74 W13       29.89R WCI  15
FINDLAY        CLOUDY    28  19  69 W22G31    29.88S WCI  14
TOLEDO EXPRESS FLURRIES  27  21  78 W20G25    29.86R WCI  13
TOLEDO METCALF LGT SNOW  27  20  75 SW20G26   29.87R WCI  13
LIMA           CLOUDY    27  21  78 W18       29.90S WCI  14

$$
AND FOR LAKE MICHIGAN COASTAL AND OPEN LAKE BUOY OBSERVATIONS

STATION/POSITION TEMP    WIND        PRES    VSBY  WAVE
                 AIR SEA DIR/SP/G                  HT/PER
                 (F)     (DEG/KT/KT) (MB)    (MI)  (FT/S)
CALUMET HARBOR    32     230/  9/ 14 1012.1F
MICHIGAN CITY     31     260/ 26/ 30   N/A
BURNS HARBOR      31     280/ 17/ 23 1013.2S
SAINT JOSEPH      32     280/ 17/ 21 1012.2

$$
&&




USA.gov is the U.S. government's official web portal to all federal, state and local government web resources and services.